Flag for France Weather past 2 weeks in Saint-Étienne, France

Now
63 °F

Clear.


Feels Like: 63 °F
Forecast: 60 / 75 °F
Wind: 5 mph from Southeast

Location: St-Etienne Boutheon

Current Time: Jul 25, 2014 at 8:33:13 PM

Latest Report: Jul 25, 2014 at 8:00 PM


Visibility: N/A

Pressure: 29.92 "Hg

Humidity: 88%

Dew point: 59 °F

Location of Saint-ÉtienneLocation

Historic Weather in Saint-Étienne — Graph

°F

Saint-Étienne temperature yesterday

Maximum temperature yesterday: 81 °F (at 5:00 PM)
Minimum temperature yesterday: 59 °F (at 6:00 AM)
Average temperature yesterday: 70 °F

Past Weeks' High & Low Weather Summary

 TemperatureHumidityPressure
High93 °F (Jul 18, 3:00 PM)100% (Jul 12, 2:00 AM)30.18 "Hg (Jul 12, 2:00 AM)
Low52 °F (Jul 16, 6:00 AM)22% (Jul 19, 3:00 PM)29.83 "Hg (Jul 19, 6:00 PM)
Average68 °F70%30.02 "Hg
* Reported Jul 10 7:00 PM — Jul 25 7:30 PM, Saint-Étienne, Weather by CustomWeather, © 2014

Note: Actual official high and low records may vary slightly from our data, if they occured in-between our weather recording intervals... More about our weather records

Advertising

Saint-Étienne weather history for previous 24 hours

 ConditionsComfort  
Time TempWeatherWind HumidityBarometerVisibility
7:30 PM
Jul 25
63 °FLight rain. Overcast.6 mph83%29.95 "HgN/A
7:00 PM63 °FLight rain. Cloudy.7 mph88%29.95 "HgN/A
6:30 PM63 °FLight rain. Cloudy.7 mph83%29.92 "HgN/A
6:00 PM63 °FThunderstorms. Broken clouds.6 mph83%29.92 "HgN/A
5:30 PM61 °FThunderstorms. Broken clouds.22 mph88%29.92 "Hg6 mi
5:00 PM66 °FHail. Broken clouds.24 mph64%29.92 "Hg2 mi
4:30 PM79 °FThunderstorms. Broken clouds.9 mph51%29.89 "HgN/A
4:00 PM81 °FBroken clouds.2 mph42%29.89 "HgN/A
3:30 PM82 °FBroken clouds.3 mph42%29.89 "HgN/A
3:00 PM82 °FBroken clouds.3 mph45%29.89 "HgN/A
2:30 PM82 °FBroken clouds.7 mph42%29.89 "HgN/A
2:00 PM82 °FPartly sunny.6 mph40%29.92 "HgN/A
1:30 PM81 °FPartly sunny.2 mph42%29.92 "HgN/A
1:00 PM81 °FPartly sunny.2 mph39%29.92 "HgN/A
12:30 PM79 °FPartly sunny.2 mph48%29.92 "HgN/A
12:00 PM77 °FPartly sunny.2 mph51%29.95 "HgN/A
11:30 AM75 °FPartly sunny.2 mph54%29.95 "HgN/A
11:00 AM75 °FPartly sunny.2 mph57%29.95 "HgN/A
10:30 AM72 °FPartly sunny.2 mph61%29.95 "HgN/A
10:00 AM70 °FSunny.No wind69%29.95 "Hg10 mi
9:30 AM68 °FSunny.3 mph69%29.95 "Hg10 mi
9:00 AM66 °FSunny.2 mph73%29.95 "Hg10 mi
8:30 AM64 °FSunny.5 mph78%29.95 "Hg10 mi
8:00 AM61 °FSunny.3 mph83%29.95 "Hg10 mi
7:30 AM57 °FSunny.3 mph94%29.98 "Hg10 mi
7:00 AM57 °FClear.2 mph88%29.95 "Hg10 mi
6:30 AM57 °FFog.2 mph94%29.95 "HgN/A
6:00 AM57 °FFog.No wind94%29.95 "HgN/A
5:30 AM57 °FClear.No wind94%29.95 "HgN/A
5:00 AM57 °FClear.2 mph88%29.95 "HgN/A
4:30 AM59 °FClear.No wind88%29.95 "HgN/A
4:00 AM59 °FClear.2 mph88%29.95 "HgN/A
3:30 AM59 °FClear.2 mph88%29.95 "HgN/A
3:00 AM59 °FClear.2 mph88%29.95 "HgN/A
2:30 AM59 °FClear.2 mph88%29.95 "HgN/A
2:00 AM61 °FClear.No wind88%29.95 "Hg4 mi
1:30 AM61 °FClear.No wind88%29.95 "HgN/A
1:00 AM63 °FClear.No wind83%29.95 "HgN/A
12:30 AM64 °FClear.No wind78%29.95 "HgN/A
12:00 AM64 °FClear.1 mph83%29.95 "HgN/A
11:30 PM
Jul 24
66 °FClear.1 mph78%29.95 "HgN/A
11:00 PM68 °FClear.2 mph73%29.95 "HgN/A
10:30 PM72 °FClear.2 mph61%29.95 "HgN/A
10:00 PM70 °FClear.No wind69%29.95 "HgN/A
9:30 PM72 °FMild.3 mph65%29.92 "HgN/A
9:00 PM75 °FClear.2 mph50%29.92 "HgN/A
8:30 PM77 °FClear.3 mph44%29.92 "HgN/A
8:00 PM79 °FWarm.5 mph45%29.92 "HgN/A
Weather by CustomWeather, © 2014

See weather overviewHow to use our weather pages